カタログに戻る

STARLINK-32177

運用中通信VLEO
NORAD 60441·PAYLOAD·🇺🇸 United States

打ち上げ Aug 12, 2024 から Cape Canaveral Space Force Station

Loading…

次のパス (今後24時間)

TLE

最新Source: CelesTrak SupGP

元期: Sep 14, 2026, 22:34 UTC

1 60441C 24144S   26257.94076389  .00036717  00000+0  10852-2 0  2576
2 60441  53.1585  53.5836 0000996  60.5174  86.9709 15.34360496    12

AllMySatでSTARLINK-32177をリアルタイム追跡

Download on the App Store